Погода в Бугульме

Погода в Бугульме : погода сейчас, прогноз погоды и архив. Всё, что Вы хотите узнать о погоде в Бугульме!

Хотите узнать прогноз погоды в Бугульме? Тогда Вам сюда: Погода в Бугульме

Поиск расширенной информации на нашем сайте:

Полезная информация:

Другие новости

Новости СМИ2

Главная страница сайта

Новости сайта

03.07.2017

Напоминаем, что на нашем специализированном сайте Метеоцентр.Азия вы можете получить высокодетализированные автоматические прогнозы погоды по пунктам России, СНГ и мира в авиационном формате (включающие направление и скорость ветра, видимость, явления погоды, количество и форму облачности, нижнюю и верхнюю границу облачности).

Рекомендуем:

Погода в Бугульме - сегодня

Время (UTC), дата Ветер
(°,м/с) 
Видим.   Явления Облачность Т
(°С)
Тd
(°С)
f(%) Тe
(°С)
Pmin
(гПа)
dP
(гПа)
Po
(мм)
O2
(г/м3)
Тmin Tmax R s Состояние
почвы
21 18.05.19 270 (З) 10 км    3/3 1500 м 
[Sc diur, vesp]
+1.6 -3.5 69 +1  1010.2  -0.5  730  293           
00 19.05.19 260 (З) 20000 м    10/3 1500 м средняя, верхняя 
[Sc|Ac trans|Ci fib]
+1.1 -3.5 71 1009.3  -0.9  729  293           
03 19.05.19 240 (ЮЗ) 20000 м  слаб. ливневой снег  10/10 500 м кучево-дожд. 
[Cb calv]
+1.1 +0.1 93 1009.3  0.1  729  292  +0.4    0.5    влажная 
06 19.05.19 280 (З) 20000 м  {ливн. осадки}  10/10 450 м кучево-дожд. 
[Cb calv]
+5.2 +2.1 80 +4  1008.7  729  288           
09 19.05.19 310 (СЗ) 6-10{11}  20000 м  в посл. час крупа{ливн. осадки}  8/8 480 м кучево-дожд. 
[Cb calv]
+7.3 -2.8 49 +5  1009  0.5  729  286           
12 19.05.19 310 (СЗ) 5{10}  10 км  в посл. час ливневой дождь  10/10 400 м 
[Sc]
+6.3 -1.3 58 +4  1010.2  730  288           
15 19.05.19 290 (З) 4{10}  20000 м    10/10 800 м 
[Sc]
+4.9 -0.9 66 +3  1011.2  0.9  731  289    +7.8  0.5     
18 19.05.19 320 (СЗ) 5-12{12}  10 км    10/8 930 м кучево-дожд., средняя 
[Cb calv|Ac und]
+3.7 -0.3 75 +1  1012.7  1.3  732  291           
21 19.05.19 310 (СЗ) 4{12}  10 км  {ливн. осадки}  8/8 1080 м кучево-дожд. 
[Cb calv]
+2.6 +0.2 84 +1  1013.4  0.5  732  292           
00 20.05.19 320 (СЗ) 20000 м  {ливн. осадки}  8/8 1080 м кучево-дожд. 
[Cb calv]
+2 -0.7 82 +1  1014.1  0.6  733  293           
03 20.05.19 310 (СЗ) 20000 м    8/8 300 м 
[Frnb]
+2.2 -0.4 83 1015.1  733  293  +1    0.0    влажная 
06 20.05.19 300 (СЗ) 20000 м    10/10 630 м 
[Sc diur, vesp]
+4.5 -0.4 70 +2  1015.1  0.3  734  291           
09 20.05.19 310 (СЗ) 20000 м    10/10 900 м кучево-дожд. 
[Cb calv]
+6 -0.9 61 +4  1015.1  0.2  734  289           
12 20.05.19 310 (СЗ) 20000 м  {ливн. осадки}  8/8 1080 м кучево-дожд. 
[Cb calv]
+7.4 -0.2 58 +7  1015.2  0.3  734  288           
15 20.05.19 300 (СЗ) 20000 м    8/6 1200 м кучево-дожд., средняя 
[Cb calv|Ac trans]
+8.2 -1.1 52 +7  1014.7  -0.4  734  287    +9.6       
18 20.05.19 290 (З) 4{10}  10 км    6/3 1000 м верхняя 
[Sc|Ci fib]
+3.9 +1.3 83 +2  1016.2  0.9  734  291           
21 20.05.19 280 (З) 10 км    6/3 1500 м верхняя 
[Sc|Ci fib]
+3.1 +0.8 85 +2  1016.6  0.3  734  292           
00 21.05.19 280 (З) 10 км    8/6 1200 м средняя 
[Sc|Ac trans]
+2.2 +0.4 88 1017  0.2  735  294           
03 21.05.19 270 (З) 20000 м    4/3 1000 м средняя 
[Sc|Ac trans]
+5.7 +1.7 75 +5  1017.5  735  290  +2.1        влажная 
06 21.05.19 330 (СЗ) 6-10{11}  20000 м    8/8 1200 м 
[Cu med, cong]
+9.5 -4.2 38 +8  1017.5  0.4  736  287           
09 21.05.19 300 (СЗ) 6-10{10}  20000 м    8/8 1200 м 
[Cu med, cong]
+11.1 -4.4 33 +10  1017  -0.2  736  285           
12 21.05.19 310 (СЗ) 3{10}  20000 м    8/8 1300 м 
[Sc diur, vesp]
+12.1 -4.9 30 +12  1016.8  0.1  735  284           
15 21.05.19 310 (СЗ) 20000 м    6/6 1500 м 
[Sc diur, vesp]
+12.5 -4.4 30 +12  1016.6  0.1  735  284    +13.8       
18 21.05.19 270 (З) 10 км    3/0 средняя 
[Ac trans]
+6.7 -3 50 +7  1017.7  0.3  736  290           
21 21.05.19 250 (З) 10 км    ясно 
+3.7 -3.4 60 +2  1018.1  736  293           
Время (UTC), дата Ветер
(°,м/с) 
Видим.   Явления Облачность Т
(°С)
Тd
(°С)
f(%) Тe
(°С)
Pmin
(гПа)
dP
(гПа)
Po
(мм)
O2
(г/м3)
Тmin Tmax R s Состояние
почвы

Для получения пояснительной информации подведите курсор к названию столбца.

ПОГОДА в Бугульме - архив

Всё, что Вы хотите узнать о погоде в Бугульме - удобно и подробно!

Выберите нужную дату (начиная с 1 января 2018* года) и нажмите кнопку "Найти".
Будут отображены архивные сводки погоды по пункту Бугульма, начиная с указанной даты.


Отображать данные в формате CSV (для использования в таблицах Excel)


Внимание! Наш архив погоды предназначен исключительно для личного некоммерческого использования в познавательных целях. Если Вам необходимы официальные справки о состоянии погоды (для производственных, юридических, коммерческих и т.п. целей), обращайтесь в органы Росгидромета.

*Примечание: данная дата относится к архиву по метеостанциям СССР (Россия, СНГ, Балтия).
Архив по метеостанциям Зарубежной Европы и Азии (кроме Китая) хранится 10 дней, по другим регионам земного шара (Китай, Африка, Америка, Австралия, Океания) - 1 день.

Бугульма - район местоположения метеостанции


Название, широта, долгота, высота метеостанции:
Бугульма 54.6°ш. 52.8°д. 304 м над ур. моря [Российская Федерация]

Дополнительная информация

В oтличие oт бoльшинства пoгoдных сайтoв мы публикуем пoдрoбную метеoинфoрмацию в детальнoм прoфессиoнальнoм фoрмате.

Характеристики температуры и влажнoсти вoздуха измеряются на высoте 2 м в тени вдали oт зданий и деревьев.
Скoрoсть ветра измеряется на высoте 10 м (на урoвне рoста челoвека скoрoсть ветра ниже в 1.5-2 раза). Если метеoстанция нахoдится в гoрoде или в лесу, тo скoрoсть ветра занижена на 2-4 м/с пo сравнению с oткрытым местoм. Скoрoсть ветра над акватoриями крупных рек и oзёр, а также на вершинах хoлмoв на 2-5 м/с выше, чем в oбычных услoвиях.
Атмoсфернoе давление в разных тoчках местнoсти мoжет значительнo oтличаться oт давления на метеoстанции, в зависимoсти oт услoвий рельефа (при пoдъёме на 10 м давление пoнижается примернo на 1 мм рт.ст.).